Wind_Speed
13 22 22 22 24 25 26 26 26 23 20 19 19 19 19 18 18 17 13 11 10 10 9 9 10 7 8 10 10 10 11 12 13
10 17 20 22 23 24 25 25 23 18 17 18 18 18 19 20 20 18 15 13 11 9 8 7 8 7 8 9 9 11 11 13 15
7 16 19 21 23 24 25 24 21 16 16 18 18 20 21 21 20 20 19 16 14 12 11 10 8 7 8 8 9 10 11 13 16
2 14 16 18 20 22 23 24 25 22 18 19 19 21 21 21 22 22 22 20 17 14 13 11 11 10 10 10 10 11 12 13 15
5 14 17 18 19 21 24 25 25 27 23 21 20 20 20 20 22 23 23 22 19 17 16 15 14 14 13 13 14 15 16 16 18
4 8 20 22 20 21 23 24 22 22 17 18 19 21 21 20 21 22 22 21 20 20 18 17 18 17 16 16 17 19 20 20 21
4 9 12 22 23 22 24 26 25 23 20 17 16 15 15 18 23 23 22 20 20 21 20 19 19 18 17 18 20 21 22 23 24
8 10 13 16 25 31 25 33 30 25 30 27 26 26 23 20 15 15 19 21 23 22 24 19 17 18 18 18 18 20 22 23 25
7 13 8 11 16 19 33 24 34 37 35 37 35 35 33 27 27 24 21 18 21 24 25 22 18 19 19 17 15 20 20 23 28
15 21 18 12 9 9 31 40 41 40 41 41 43 37 35 31 30 29 28 26 25 24 25 23 23 23 22 17 14 26 30 31 29
23 29 26 22 19 15 8 19 41 47 41 40 38 41 39 38 37 34 31 33 35 33 29 27 26 21 14 11 12 29 33 40 35
32 33 31 30 26 25 20 16 10 16 27 35 42 42 40 40 42 39 37 38 40 39 37 35 34 21 21 22 27 27 27 39 40
33 35 35 33 33 31 28 27 20 16 14 16 25 30 40 50 48 45 47 46 44 43 44 43 35 31 29 38 33 31 33 36 35
13 25 29 29 29 34 35 33 31 24 23 19 16 20 26 34 45 50 50 50 45 44 47 48 45 42 40 39 39 38 36 33 31
20 22 29 31 32 34 38 37 38 32 30 29 24 19 21 23 27 39 49 48 45 41 46 51 51 46 47 45 42 39 29 32 34
35 34 33 35 37 40 41 41 45 41 36 34 30 27 21 26 41 45 49 48 43 47 44 47 48 49 52 44 45 37 25 35 41
24 29 31 31 33 39 38 42 45 45 43 41 38 35 31 25 23 34 46 48 49 47 41 43 47 48 46 40 43 32 31 33 30
30 33 31 34 35 35 35 36 37 40 44 42 41 38 34 30 29 32 41 43 42 43 43 45 45 42 35 30 28 25 28 28 28
31 33 32 32 28 30 31 29 30 34 37 39 37 33 35 29 26 30 37 38 40 42 39 31 27 26 23 22 29 38 30 29 32
30 30 29 26 23 24 27 26 22 22 25 29 31 31 28 28 25 25 28 29 28 29 25 18 15 20 25 37 40 33 29 32 31
Wind_Direction
217 200 202 209 207 206 208 208 211 214 225 211 208 210 211 211 211 208 208 202 194 192 194 207 224 226 236 241 236 244 264 280 298
174 183 196 203 210 209 211 208 214 221 220 211 211 210 211 212 212 209 207 206 206 209 214 212 229 250 254 258 262 269 283 291 299
182 188 190 196 203 206 208 211 213 218 213 212 210 210 212 213 215 214 212 215 222 226 230 233 248 249 262 271 281 292 292 301 299
122 201 202 204 204 208 210 211 212 221 217 215 214 214 217 217 217 218 221 227 231 238 243 249 253 261 267 281 295 303 302 305 308
297 185 213 216 214 210 209 210 211 217 224 223 222 224 227 225 223 224 228 234 240 243 248 253 257 261 271 280 288 293 297 302 307
248 255 204 202 224 218 218 210 208 214 217 221 227 226 227 230 233 232 232 236 239 243 248 254 263 272 282 289 293 295 299 302 303
243 225 255 214 198 227 228 233 227 217 219 215 216 228 231 236 238 240 241 242 243 247 254 258 265 280 283 288 289 293 294 295 297
246 237 237 241 228 199 203 240 253 242 226 228 227 236 249 246 248 252 248 242 243 247 256 258 264 272 285 288 297 302 302 295 292
264 256 253 261 261 238 203 200 228 236 235 234 239 241 244 250 250 247 251 261 253 248 250 258 260 267 271 281 297 315 315 299 294
264 264 260 264 271 285 216 213 227 237 232 226 234 237 244 248 247 247 248 252 255 253 252 251 252 257 264 279 324 325 293 277 279
238 259 261 259 259 260 237 222 232 238 243 239 231 235 237 242 248 250 249 249 252 249 245 250 254 257 270 280 309 325 275 282 287
248 254 255 257 257 256 257 256 250 242 249 256 246 238 240 238 242 247 251 254 257 254 250 248 256 259 268 258 274 299 280 283 293
246 253 255 253 257 261 259 257 253 255 256 249 257 255 250 246 244 243 246 249 249 254 249 248 249 248 256 266 272 281 282 287 290
260 247 255 255 256 261 260 258 258 250 254 257 264 252 249 252 246 244 243 247 248 249 249 247 242 243 248 254 263 272 282 285 285
258 257 249 258 260 258 258 259 260 256 255 261 275 280 259 260 264 243 254 246 245 242 256 252 242 245 249 248 249 265 283 283 280
252 261 268 263 265 267 261 263 260 261 260 262 272 274 273 252 245 247 248 238 242 250 242 239 236 241 242 241 247 270 281 292 287
264 266 269 276 269 264 269 265 264 264 263 263 265 266 270 277 267 252 236 229 238 248 236 232 230 232 238 243 264 272 286 274 279
283 281 275 269 274 276 270 269 265 261 261 262 262 265 268 267 266 249 236 231 224 223 220 222 225 227 237 258 267 276 276 281 281
277 279 281 275 268 268 270 265 261 258 257 258 263 263 264 264 263 255 240 231 218 214 214 222 224 254 266 288 303 292 282 286 288
277 286 280 274 268 264 261 261 256 255 254 253 256 254 254 258 254 241 228 222 215 205 197 227 256 277 276 291 279 277 284 289 291
Height
3147 3150 3155 3158 3160 3163 3165 3167 3167 3168 3169 3172 3174 3177 3180 3183 3185 3187 3189 3191 3193 3194 3196 3198 3199 3200 3201 3202 3203 3203 3203 3203 3203
3147 3149 3153 3156 3158 3160 3163 3163 3164 3166 3168 3170 3172 3176 3179 3181 3183 3185 3188 3190 3192 3195 3196 3197 3198 3199 3199 3200 3201 3202 3203 3203 3203
3147 3149 3151 3153 3156 3157 3160 3161 3163 3163 3166 3168 3170 3173 3175 3178 3180 3184 3186 3188 3190 3193 3195 3196 3197 3198 3199 3199 3200 3200 3200 3201 3200
3148 3150 3151 3153 3155 3157 3158 3159 3161 3161 3163 3166 3168 3170 3173 3175 3178 3181 3183 3186 3188 3191 3192 3194 3195 3197 3197 3198 3199 3199 3199 3199 3199
3144 3145 3151 3153 3154 3155 3156 3157 3158 3158 3160 3163 3165 3169 3171 3173 3176 3178 3180 3183 3186 3188 3190 3191 3193 3194 3195 3196 3197 3197 3196 3196 3196
3141 3143 3144 3148 3152 3154 3153 3153 3154 3156 3158 3160 3163 3165 3168 3170 3172 3175 3177 3180 3183 3184 3186 3188 3190 3191 3193 3194 3194 3194 3194 3194 3193
3138 3139 3140 3142 3145 3153 3151 3151 3151 3153 3156 3159 3160 3162 3164 3166 3169 3171 3174 3178 3180 3181 3182 3185 3186 3188 3190 3190 3190 3189 3189 3188 3187
3135 3136 3136 3137 3139 3140 3142 3145 3147 3150 3152 3154 3157 3159 3161 3163 3166 3168 3170 3173 3175 3177 3178 3181 3184 3185 3185 3185 3185 3184 3183 3182 3181
3132 3132 3132 3133 3133 3134 3136 3137 3139 3141 3146 3149 3151 3154 3156 3159 3162 3165 3167 3168 3170 3172 3173 3175 3179 3179 3179 3179 3179 3179 3178 3174 3173
3127 3127 3129 3130 3129 3129 3130 3130 3131 3134 3136 3140 3143 3146 3150 3153 3156 3158 3161 3164 3165 3166 3168 3171 3172 3173 3172 3173 3173 3173 3175 3169 3166
3120 3120 3123 3125 3126 3126 3126 3127 3129 3129 3130 3134 3137 3139 3143 3146 3148 3151 3155 3156 3156 3159 3161 3163 3165 3167 3169 3169 3168 3168 3164 3161 3159
3110 3112 3115 3116 3119 3120 3121 3122 3122 3124 3125 3126 3130 3133 3136 3139 3141 3144 3146 3148 3148 3151 3154 3155 3156 3163 3164 3162 3161 3161 3158 3156 3152
3102 3103 3104 3107 3109 3111 3114 3115 3116 3118 3118 3118 3121 3124 3126 3129 3133 3135 3135 3138 3140 3143 3147 3149 3155 3157 3156 3153 3154 3154 3153 3149 3145
3093 3096 3097 3099 3101 3101 3103 3105 3107 3110 3112 3114 3114 3115 3115 3117 3121 3124 3127 3129 3132 3135 3139 3142 3145 3147 3147 3146 3144 3145 3144 3143 3144
3087 3089 3092 3092 3093 3094 3093 3094 3096 3100 3103 3106 3105 3106 3106 3108 3112 3116 3120 3120 3122 3124 3126 3129 3134 3137 3136 3137 3138 3138 3137 3137 3138
3082 3082 3082 3084 3084 3083 3085 3087 3085 3089 3093 3095 3096 3097 3098 3099 3104 3105 3104 3109 3110 3110 3114 3115 3118 3122 3120 3127 3128 3129 3130 3134 3133
3075 3074 3075 3075 3074 3073 3075 3075 3078 3079 3082 3085 3087 3089 3090 3090 3090 3095 3094 3095 3097 3101 3104 3107 3109 3112 3111 3118 3119 3121 3119 3118 3120
3067 3066 3066 3065 3064 3063 3065 3066 3067 3070 3071 3074 3076 3078 3080 3081 3081 3082 3082 3084 3086 3087 3092 3096 3097 3107 3110 3109 3111 3111 3111 3108 3109
3060 3058 3057 3056 3057 3055 3054 3056 3057 3059 3060 3063 3066 3068 3069 3071 3071 3071 3073 3076 3080 3084 3089 3098 3102 3109 3106 3104 3103 3106 3107 3102 3100
3052 3051 3047 3047 3049 3049 3047 3048 3050 3052 3054 3056 3057 3060 3062 3063 3064 3067 3070 3074 3078 3082 3087 3092 3094 3100 3098 3098 3097 3094 3095 3097 3092